Regional Weather Roundup
Issued by NWS

Home | Current Version | Previous Version | Text Only | Print | Product List | Glossary On
Versions: 1 2 3 4 5 6 7 8 9 10 11 12 13 14 15 16 17 18 19 20 21 22 23 24 25 26 27 28 29 30 31 32 33 34 35 36 37 38 39 40 41 42 43 44 45 46 47 48 49 50
000
ASUS43 KDMX 250806
RWRIA

WEATHER ROUNDUP FOR IOWA
NATIONAL WEATHER SERVICE DES MOINES IA
300 AM CDT THU MAY 25 2017

NOTE: "FAIR" INDICATES FEW OR NO CLOUDS BELOW 12,000 FEET WITH NO
SIGNIFICANT WEATHER AND/OR OBSTRUCTIONS TO VISIBILITY.

* - THESE STATIONS ARE NOT NWS STATIONS...THUS NOT UNDER NWS
QUALITY CONTROL.  THEY ALSO DO NOT REPORT WEATHER SUCH
AS PRECIPITATION OR FOG.

IAZ001>003-012>014-020>022-031>034-043>046-250900-
   NORTHWEST IOWA

CITY           SKY/WX    TMP DP  RH WIND       PRES   REMARKS
CARROLL *      CLEAR     46  46 100 S3        29.67S
CHEROKEE *     CLEAR     47  46  95 CALM      29.66F
DENISON *      CLEAR     50  46  87 SE7       29.69R
LE MARS *      CLOUDY    50  45  81 SE10G16   29.65S
ORANGE CITY *  CLEAR     48  46  93 SE5       29.64F
SHELDON *      CLEAR     48  45  87 SE8       29.64S
SIOUX CITY     PTCLDY    49  46  90 SE8       29.64S
SPENCER        CLEAR     46  44  93 SE7       29.66F
STORM LAKE *   CLEAR     48  45  87 SE7       29.67S
$$

IAZ055>058-069>071-079>083-090>094-250900-
   SOUTHWEST IOWA

CITY           SKY/WX    TMP DP  RH WIND       PRES   REMARKS
ATLANTIC *     CLEAR     46  46 100 CALM      29.68S
AUDUBON *      CLEAR     43  39  87 CALM      29.69R
CLARINDA *     CLEAR     45  45 100 CALM      29.70F
COUNCIL BLFS * CLEAR     50  50 100 SE6       29.67F
CRESTON *      CLEAR     46  46 100 SE3       29.69F
HARLAN  *      CLEAR     48  48 100 CALM      29.71S
LAMONI         CLEAR     49  46  90 CALM      29.68F
RED OAK *      CLEAR     48  48 100 CALM      29.68S
SHENANDOAH *   CLEAR     50  48  93 CALM      29.68F
$$

IAZ047>049-059>061-072>074-084-250900-
   CENTRAL IOWA

CITY           SKY/WX    TMP DP  RH WIND       PRES   REMARKS
AMES           CLEAR     44  44 100 CALM      29.68S FOG
ANKENY *       FOG       43  41  93 CALM      29.69S VSB<1/4
BOONE *        CLEAR     50  50 100 CALM      29.68S
CHARITON *     CLEAR     46  45  93 W5        29.68S
DES MOINES     CLEAR     49  46  90 CALM      29.68S
GRINNELL*      CLEAR     46  45  95 CALM      29.69S
KNOXVILLE *    CLEAR     46  45  93 W5        29.67S
MARSHALLTOWN   CLEAR     46  46 100 CALM      29.67S
NEWTON *       CLEAR     48  46  93 N5        29.67S
PELLA *        CLEAR     46  45  97 CALM      29.69S
PERRY *          N/A     49  48  97 E5        29.68F FOG
$$

IAZ004>006-015-016-023>025-035-036-250900-
   NORTH CENTRAL IOWA

CITY           SKY/WX    TMP DP  RH WIND       PRES   REMARKS
ALGONA *       CLEAR     50  50 100 SE7       29.67F
CLARION *      CLEAR     48  48 100 SE8       29.68F
ESTHERVILLE    CLEAR     44  44 100 SE8       29.65F
FORT DODGE *   CLEAR     45  43  93 CALM      29.67F
MASON CITY     FOG       44  44 100 CALM      29.70S VSB 1/4
FOREST CITY *  HAZE      43  34  70 CALM      29.69S VSB 1/4
WEBSTER CITY * CLEAR     46  46 100 SE5       29.66F
IOWA FALLS *     N/A     45  44  96 CALM      29.69S
$$

IAZ007>011-017>019-026>030-037>042-050>054-066-250900-
   NORTHEAST IOWA

CITY           SKY/WX    TMP DP  RH WIND       PRES   REMARKS
CEDAR RAPIDS   CLEAR     48  48 100 N7        29.66S
CHARLES CITY * CLEAR     48  48 100 NE6       29.69S
CLINTON *      CLOUDY    53  50  89 N8        29.64S
DECORAH *      CLOUDY    48  48 100 CALM      29.68S
DUBUQUE        PTCLDY    49  48  97 N9        29.66S
MONTICELLO *   MOCLDY    50  48  93 N8        29.66S
OELWEIN *      CLEAR     46  46 100 NE3       29.68S
WATERLOO       FOG       43  42  97 CALM      29.67F VSB 1
$$

IAZ064-065-067-068-078-250900-
   EAST CENTRAL IOWA

CITY           SKY/WX    TMP DP  RH WIND       PRES   REMARKS
DAVENPORT      PTCLDY    51  49  92 NW8       29.65R
IOWA CITY      CLEAR     53  49  86 N6        29.67S
MT. PLEASANT * CLEAR     50  49  99 NW6       29.66S
MUSCATINE *    MOCLDY    50  48  93 CALM      29.66R
QUAD CITIES    PTCLDY    54  49  83 NW5       29.64R
$$

IAZ062-063-075>077-085>089-095>099-250900-
   SOUTHEAST IOWA

CITY           SKY/WX    TMP DP  RH WIND       PRES   REMARKS
BURLINGTON     CLEAR     51  50  96 N3        29.64S
FAIRFIELD *    CLEAR     48  46  93 NW7       29.66S
FORT MADISON * CLEAR     52  50  93 NW6       29.66R
KEOKUK *       CLEAR     50  48  93 NW3       29.65R
OSKALOOSA *      N/A     47  45  94 N6        29.67F
CENTERVILLE *    N/A     46  46 100 CALM      29.69S
OTTUMWA        CLEAR     48  46  93 N6        29.67S
WASHINGTON *   CLEAR     50  48  93 N6        29.67S
$$

ABBREVIATIONS USED IN REMARKS
   TC - TEMPERATURES IN CELSIUS
  WCI - WIND CHILL INDEX
   HX - HEAT INDEX
  VSB - VISIBILITY
$$




USA.gov is the U.S. government's official web portal to all federal, state and local government web resources and services.